ראשי / חיפושים אחרונים

חיפושים אחרונים

לוחית
סוג רכב
דגם
שנה
תאריך חיפוש
שעת חיפוש
5785961 וולבו שבדיה - 2006 01/09/2026 22:52:45
21583004 טויוטה טורקיה TOYOTA C-HR 2025 01/09/2026 22:52:43
8704957 טויוטה יפן LAND CRUISER 2005 01/09/2026 22:52:41
6040113 סקניה-שוודיה - 2012 01/09/2026 22:52:39
1089885 קיה קוריאה הדרומית FORTE 2016 01/09/2026 22:52:36
5883911 פיאט פולין FIAT 500 1.2 2013 01/09/2026 22:52:35
49998401 סקודה צ'כיה RAPID 2018 01/09/2026 22:52:34
2320830 ב מ וו גרמניה 125I 2016 01/09/2026 22:52:33
5056962 מרצדס גרמניה C220CDI 2007 01/09/2026 22:52:29
7954776 פולקסווגן ספרד POLO 2012 01/09/2026 22:52:27
28775101 מ.ג סין ZS 2019 01/09/2026 22:52:24
35809401 רובר בריטניה RANGE ROVER 2019 01/09/2026 22:52:22
1596937 טויוטה טורקיה COROLLA 2016 01/09/2026 22:52:21
5149811 מיצובישי יפן OUTLANDER 2013 01/09/2026 22:52:19
10593505 פולקסווגן גרמנ - 2016 01/09/2026 22:52:19
5280015 וולבו שבדיה - 1996 01/09/2026 22:52:18
64655003 קיה סלובקיה SPORTAGE 2024 01/09/2026 22:52:17
26819303 קיה קוריאה הדרומית NIRO PLUS 2022 01/09/2026 22:52:17
57005904 ב מ וו גרמניה BMW M4 2026 01/09/2026 22:52:15
30886501 סקניה צרפת - 2020 01/09/2026 22:52:15
21583004 טויוטה טורקיה TOYOTA C-HR 2025 01/09/2026 22:52:14
10593505 פולקסווגן גרמנ - 2016 01/09/2026 22:52:14
60286501 מזדה יפן CX-5 2019 01/09/2026 22:52:14
49589501 פיאט איטליה PANDA 2018 01/09/2026 22:52:10
3818771 מזדה יפן MAZDA 3 2010 01/09/2026 22:52:08
1237073 יונדאי צ'כיה I30 2010 01/09/2026 22:52:07
7406908 רובר אנגליה - 1997 01/09/2026 22:52:05
2860551 טויוטה טורקיה COROLLA 2004 01/09/2026 22:52:03
10593505 פולקסווגן גרמנ - 2016 01/09/2026 22:52:03
2502713 דייהטסו יפן TERIOS 2006 01/09/2026 22:52:02
62128302 יונדאי קוריאה הדרומית VENUE 2021 01/09/2026 22:52:00
5075766 מרצדס גרמניה S350 2008 01/09/2026 22:51:58
60286501 מזדה יפן CX-5 2019 01/09/2026 22:51:58
1221560 טויוטה יפן COROLLA 2006 01/09/2026 22:51:55
5822173 סיאט ספרד LEON 2011 01/09/2026 22:51:52
48944203 סיטרואן ספרד BERLINGO 2023 01/09/2026 22:51:48
81325304 אורה סין GWM ORA 5 SUV 2026 01/09/2026 22:51:48
17429203 קיה קוריאה הדרומית STONIC 2022 01/09/2026 22:51:42
5839458 סוזוקי הונגריה SX4 CROSSOVER 2014 01/09/2026 22:51:40
30335503 וולבו בלגיה XC40 B4 2024 01/09/2026 22:51:38
21583004 טויוטה טורקיה TOYOTA C-HR 2025 01/09/2026 22:51:37
88858101 מרצדס הונגריה AMG A45S 2021 01/09/2026 22:51:36
2016533 דאצ'יה רומניה SANDERO 2015 01/09/2026 22:51:32
67802701 4על4 של אפי - 2019 01/09/2026 22:51:32
51998304 יונדאי קוריאה הדרומית TUCSON HYBRID 2026 01/09/2026 22:51:24
79325302 ב מ וו גרמניה 545E XDRIVE 2022 01/09/2026 22:51:22
44206801 טויוטה יפן LAND CRUISER 2018 01/09/2026 22:51:22
82033901 יונדאי צ'כיה TUCSON 2019 01/09/2026 22:51:13
3289007 פולקסווגן גרמנ - 1994 01/09/2026 22:51:12
60966601 ב מ וו גרמניה 330E 2020 01/09/2026 22:51:10
3393662 מזדה יפן MAZDA 5 2007 01/09/2026 22:51:07
1311615 ביפל טורקיה - 2001 01/09/2026 22:51:07
68085803 קיה קוריאה הדרומית EV6 2024 01/09/2026 22:51:05
54974403 קיה סלובקיה SPORTAGE 2023 01/09/2026 22:51:04
6748673 פולקסווגן סלובקיה TOUAREG 2011 01/09/2026 22:51:04
25584403 מרצדס הונגריה CLA250E 2023 01/09/2026 22:51:03
41836301 קיה סלובקיה SPORTAGE 2018 01/09/2026 22:51:02
18229304 זיקר סין ZEEKR X 2025 01/09/2026 22:51:02
27017902 מזדה יפן MAZDA 3 2020 01/09/2026 22:51:01
3738830 פורד גרמניה FOCUS 2017 01/09/2026 22:50:58
7822273 מיצובישי יפן LANCER SPORTBAC 2011 01/09/2026 22:50:57
9120184 סוזוקי הונגריה VITARA 2016 01/09/2026 22:50:55
39072501 סיאט ספרד LEON CUPRA FL 2018 01/09/2026 22:50:52
2796938 אאודי בלגיה A1 2016 01/09/2026 22:50:52
9443238 קיה סלובקיה SPORTAGE 2016 01/09/2026 22:50:51
5119611 מיצובישי תאילנד SPACE STAR 2013 01/09/2026 22:50:49
2826711 יונדאי צ'כיה I30 2013 01/09/2026 22:50:47
41398302 סאן יאנג סין - 2021 01/09/2026 22:50:47
2655360 סובארו יפן FORESTER 2006 01/09/2026 22:50:45
2937932 שברולט קוריאה הדרומית SPARK 2014 01/09/2026 22:50:42
15680302 ניסאן בריטניה QASHQAI 2020 01/09/2026 22:50:42
5007534 אאודי הונגריה A3 2015 01/09/2026 22:50:41
52964801 יונדאי קוריאה הדרומית IONIQ HYBRID 2018 01/09/2026 22:50:41
8072659 סיאט ספרד IBIZA 2006 01/09/2026 22:50:41
1020562 טויוטה טורקיה COROLLA 2007 01/09/2026 22:50:41
8002732 רובר בריטניה DISCOVERY SPORT 2015 01/09/2026 22:50:41
51689303 מזדה תאילנד MAZDA 2 2023 01/09/2026 22:50:41
7756824 יונדאי קוריאה הדרומית LANTRA 2000 01/09/2026 22:50:41
6856385 קיה סלובקיה SPORTAGE 2017 01/09/2026 22:50:40
53306103 סאן יאנג טיואן - 2023 01/09/2026 22:50:40
90122101 גרורי אמון - 2017 01/09/2026 22:50:40
2376414 פיג'ו ספרד PARTNER 2006 01/09/2026 22:50:40
62256403 זונגטונג סין - 2024 01/09/2026 22:50:40
53188403 מסגרית ר.אליאס - 2023 01/09/2026 22:50:40
5752987 וולבו שבדיה - 2019 01/09/2026 22:50:40
26423901 פיאט תאילנד FIAT FULLBACK 2017 01/09/2026 22:50:40
1142833 פיאט טורקיה QUBO 2015 01/09/2026 22:50:35
68109004 מרצדס בנץ גרמנ - 2026 01/09/2026 22:50:35
28053401 פיג'ו צרפת 3008 2018 01/09/2026 22:50:33
21566203 טויוטה יפן LAND CRUISER 2022 01/09/2026 22:50:32
41402404 יונדאי קוריאה הדרומית KONA HYBRID 2025 01/09/2026 22:50:31
40502302 קיה סלובקיה XCEED 2021 01/09/2026 22:50:27
18352403 נגררי עירון - 2022 01/09/2026 22:50:25
64655003 קיה סלובקיה SPORTAGE 2024 01/09/2026 22:50:23
77860302 סובארו יפן FORESTER 2022 01/09/2026 22:50:22
60825403 סקודה צ'כיה OCTAVIA 2024 01/09/2026 22:50:21
87193601 מיצובישי תאילנד L200 2020 01/09/2026 22:50:20
1521667 פיאט איטליה PUNTO 1.4 2010 01/09/2026 22:50:20
2655360 סובארו יפן FORESTER 2006 01/09/2026 22:50:19
22174201 רובר בריטניה DISCOVERY 2019 01/09/2026 22:50:19
2655360 סובארו יפן FORESTER 2006 01/09/2026 22:50:18
82637401 מיצובישי יפן OUTLANDER 2019 01/09/2026 22:50:17
2376414 פיג'ו ספרד PARTNER 2006 01/09/2026 22:50:17
82637401 מיצובישי יפן OUTLANDER 2019 01/09/2026 22:50:15
36928203 איסוזו תאילנד D-MAX 2024 01/09/2026 22:50:15
4784412 פולקסווגן פולין CADDY GP 2013 01/09/2026 22:50:15
8654111 פורד גרמניה FIESTA 2014 01/09/2026 22:50:14
79768902 אאודי גרמניה R8 COUPE 2022 01/09/2026 22:50:14
49493301 ב מ וו גרמניה 530E I PER 2020 01/09/2026 22:50:11
7208512 רנו טורקיה FLUENCE 2013 01/09/2026 22:50:08
21781301 רנו צרפת KANGOO 2018 01/09/2026 22:50:06
21781301 רנו צרפת KANGOO 2018 01/09/2026 22:50:05
88553201 יונדאי צ'כיה I30 2020 01/09/2026 22:50:04
13267701 קיה מקסיקו RIO 2017 01/09/2026 22:49:57
46531903 סיאט ספרד CUPRA 2023 01/09/2026 22:49:54
6390074 מרצדס גרמניה S350 2011 01/09/2026 22:49:50
4213168 ניסאן מקסיקו TIIDA 2009 01/09/2026 22:49:46
2655360 סובארו יפן FORESTER 2006 01/09/2026 22:49:44
2020171 סיטרואן צרפת C5 2010 01/09/2026 22:49:44
7975109 טויוטה בריטניה AVENSIS 2017 01/09/2026 22:49:42
7251410 יונדאי קוריאה מיניבוס 1H 2001 01/09/2026 22:49:41
2376414 פיג'ו ספרד PARTNER 2006 01/09/2026 22:49:37
90438701 רובר אנגליה - 2018 01/09/2026 22:49:36
82637401 מיצובישי יפן OUTLANDER 2019 01/09/2026 22:49:35
1053537 טויוטה צרפת YARIS 2016 01/09/2026 22:49:34
82637401 מיצובישי יפן OUTLANDER 2019 01/09/2026 22:49:33
43353002 טויוטה תאילנד HILUX 2021 01/09/2026 22:49:33
7706912 סיטרואן צרפת JUMPY 2013 01/09/2026 22:49:32
6052114 שברולט קוריאה הדרומית AVEO 2006 01/09/2026 22:49:30
35939702 יונדאי קוריאה הדרומית KONA HYBRID 2020 01/09/2026 22:49:29
4286468 ניסאן בריטניה MICRA 2009 01/09/2026 22:49:24
8654111 פורד גרמניה FIESTA 2014 01/09/2026 22:49:23
8102157 מזדה יפן MAZDA 3 2014 01/09/2026 22:49:23
15613404 טויוטה יפן COROLLA CROSS 2025 01/09/2026 22:49:18
60194403 רנו טורקיה MEGANE 2024 01/09/2026 22:49:17
8109480 איווקו איטליה - 2017 01/09/2026 22:49:13
82637401 מיצובישי יפן OUTLANDER 2019 01/09/2026 22:49:13
4640914 פורד ספרד FOCUS 2006 01/09/2026 22:49:12
89816101 טויוטה טורקיה COROLLA HSD SDN 2020 01/09/2026 22:49:11
30916001 סקניה-הולנד - 2020 01/09/2026 22:49:10
26294203 גילי סין GEOMETRY C 2022 01/09/2026 22:49:09
5791486 טויוטה טורקיה COROLLA 2017 01/09/2026 22:49:09
60242102 סיאט ספרד IBIZA 2021 01/09/2026 22:49:09
6890265 מזדה יפן MAZDA 2 2008 01/09/2026 22:49:08
65391001 ימהה צרפת - 2019 01/09/2026 22:49:08
43610903 קיה קוריאה הדרומית SELTOS 2023 01/09/2026 22:49:07
33147004 קאדילאק ארהב" ESCALADE IQ 2025 01/09/2026 22:49:07
8745838 קיה סלובקיה SPORTAGE 2016 01/09/2026 22:49:07
3175786 סוזוקי הונגריה VITARA 2017 01/09/2026 22:49:06
57588401 סקודה צ'כיה OCTAVIA 2018 01/09/2026 22:49:06
40108903 איסוזו יפן - 2023 01/09/2026 22:49:06
72617003 ב מ וו גרמניה 545E XDRIVE 2024 01/09/2026 22:49:05
59976701 מזדה יפן MAZDA 6 2019 01/09/2026 22:49:05
13904901 סאנגיונג קוריאה הדרומית REXTON 2018 01/09/2026 22:49:05
84819102 פיאט איטליה FIAT 500 2022 01/09/2026 22:49:04
46837103 סקודה צ'כיה SUPERB FL 2023 01/09/2026 22:49:04
32291104 סקודה צ'כיה KODIAQ 2025 01/09/2026 22:49:03
74918201 סקודה צ'כיה OCTAVIA 2019 01/09/2026 22:49:02
33903902 איווייס סין U5 2021 01/09/2026 22:49:02
4836834 אאודי בלגיה A1 2015 01/09/2026 22:49:02
83405903 יונדאי קוריאה הדרומית ELANTRA HEV 2024 01/09/2026 22:49:02
62294003 וולבו שבדיה - 2025 01/09/2026 22:48:56
76678303 דאצ'יה רומניה LOGAN 2024 01/09/2026 22:48:55
6505080 פיג'ו צרפת 3008 2017 01/09/2026 22:48:54
89555702 מרצדס גרמניה EQE 350 PLUS 2022 01/09/2026 22:48:53
8552752 דאף אנגליה - 2014 01/09/2026 22:48:50
8240880 פיאט טורקיה QUBO 2017 01/09/2026 22:48:46
60736302 ג'יפ ארהב" GRAND CHEROKEE 2021 01/09/2026 22:48:46
5966031 הונדה בריטניה CIVIC 2015 01/09/2026 22:48:46
87449301 מיצובישי יפן OUTLANDER PHEV 2020 01/09/2026 22:48:45
87783103 סיטרואן פורטוגל BERLINGO 2024 01/09/2026 22:48:44
66899404 גילי סין EX5 2026 01/09/2026 22:48:42
37530202 פולקסווגן ספרד POLO 2021 01/09/2026 22:48:42
47828201 איסוזו תאילנד PICK-UP 2019 01/09/2026 22:48:42
65066604 מ.ג סין CYBERSTER 2026 01/09/2026 22:48:42
7474953 סיאט ספרד LEON 2015 01/09/2026 22:48:42
6164934 סוזוקי הונגריה SWIFT 2015 01/09/2026 22:48:42
3004732 שברולט ארהב" - 2014 01/09/2026 22:48:42
3277833 רנו ספרד CAPTUR 2015 01/09/2026 22:48:41
3227064 אאודי גרמניה A4 2008 01/09/2026 22:48:39
9224463 מיצובישי יפן PAJERO 2008 01/09/2026 22:48:39
2937066 יונדאי טורקיה ACCENT 2008 01/09/2026 22:48:39
4196158 קיה קוריאה הדרומית CARNIVAL 2005 01/09/2026 22:48:39
4188871 מזדה יפן MAZDA 3 2011 01/09/2026 22:48:39
9782054 מזדה תאילנד MAZDA 2 2016 01/09/2026 22:48:38
79768902 אאודי גרמניה R8 COUPE 2022 01/09/2026 22:48:37
7070779 טויוטה צרפת YARIS 2012 01/09/2026 22:48:36
2012430 פורד קנדה EDGE-SEL 2016 01/09/2026 22:48:36
2364016 רנו צרפת טווינגו 2.1 YSAE 1996 01/09/2026 22:48:36
6162965 פורד ספרד FOCUS 2008 01/09/2026 22:48:36
1379439 פיאט טורקיה QUBO 2016 01/09/2026 22:48:35
8403158 טויוטה יפן LAND CRUISER 2005 01/09/2026 22:48:35
4240414 יונדאי קוריאה הדרומית טראק 1H 2006 01/09/2026 22:48:34
1038473 יונדאי טורקיה ACCENT 2010 01/09/2026 22:48:33
1279033 ניסאן בריטניה JUKE 2015 01/09/2026 22:48:33
46826804 ימהה יפן - 2026 01/09/2026 22:48:32
2509812 סקודה צ'כיה OCTAVIA 2013 01/09/2026 22:48:31
8736866 טויוטה יפן COROLLA 2009 01/09/2026 22:48:31
2706188 סובארו יפן - 1988 01/09/2026 22:48:27
18942703 ב מ וו ארהב" X6 XDRIVE30D 2022 01/09/2026 22:48:27
וואטסאפ